"read_dt","SO2 (ppb)","flags","PMT voltage (V)","lamp voltage (V)","lamp intensity (Hz)","internal temp (C)","react chamber temp (C)","sample flow (l/min)","pres (mmHg)","SO2 bkg (ppb)","SO2 coefficient"
2018-07-09 00:00:00,-1.997E-01,4C000000*,-703.0,973.895,90,25.3,44.8,0.412,748.7,2.1,1.050*
2018-07-09 00:01:00,-2.160E-01,4C000000*,-702.6,973.491,89,25.3,45.1,0.412,748.7,2.1,1.050*
2018-07-09 00:02:00,-1.998E-01,4C000000*,-703.0,972.682,90,25.2,44.8,0.412,748.7,2.1,1.050*
2018-07-09 00:03:00,-2.388E-01,4C000000*,-702.6,972.682,90,25.4,45.0,0.412,748.7,2.1,1.050*
2018-07-09 00:04:00,-2.077E-01,4C000000*,-703.0,974.299,90,25.4,45.0,0.412,748.7,2.1,1.050*
2018-07-09 00:05:00,-1.568E-01,4C000000*,-702.6,973.086,90,25.4,44.8,0.412,748.7,2.1,1.050*
2018-07-09 00:06:00,-3.004E-01,4C000000*,-703.0,971.873,91,25.3,45.0,0.412,748.7,2.1,1.050*
2018-07-09 00:07:00,-2.452E-01,4C000000*,-703.0,971.873,90,25.3,45.0,0.412,748.7,2.1,1.050*
2018-07-09 00:08:00,-2.502E-01,4C000000*,-703.0,973.491,90,25.3,44.7,0.412,748.7,2.1,1.050*
2018-07-09 00:09:00,-2.702E-01,4C000000*,-702.3,972.278,89,25.3,44.9,0.412,748.7,2.1,1.050*
2018-07-09 00:10:00,-3.216E-01,4C000000*,-703.0,972.682,90,25.3,45.1,0.412,748.7,2.1,1.050*
2018-07-09 00:11:00,-2.538E-01,4C000000*,-703.0,973.086,89,25.3,44.8,0.412,748.7,2.1,1.050*
2018-07-09 00:12:00,-2.303E-01,4C000000*,-702.6,972.278,88,25.4,45.0,0.412,748.7,2.1,1.050*
2018-07-09 00:13:00,-2.124E-01,4C000000*,-703.0,973.491,90,25.5,44.9,0.412,748.7,2.1,1.050*
2018-07-09 00:14:00,-1.632E-01,4C000000*,-703.0,973.086,90,25.3,44.9,0.412,748.7,2.1,1.050*
2018-07-09 00:15:00,-2.878E-01,4C000000*,-702.6,972.682,91,25.4,45.1,0.412,749.0,2.1,1.050*
2018-07-09 00:16:00,-2.354E-01,4C000000*,-702.6,973.491,90,25.4,44.7,0.412,748.7,2.1,1.050*
2018-07-09 00:17:00,-2.811E-01,4C000000*,-703.0,973.086,90,25.4,44.8,0.412,749.0,2.1,1.050*
2018-07-09 00:18:00,-2.194E-01,4C000000*,-702.6,973.491,90,25.4,45.1,0.412,748.7,2.1,1.050*
2018-07-09 00:19:00,-2.209E-01,4C000000*,-703.0,972.682,89,25.4,44.8,0.412,748.7,2.1,1.050*
2018-07-09 00:20:00,-2.191E-01,4C000000*,-703.0,973.895,91,25.4,44.9,0.412,748.7,2.1,1.050*
2018-07-09 00:21:00,-1.639E-01,4C000000*,-703.0,973.491,88,25.4,45.0,0.412,748.7,2.1,1.050*
2018-07-09 00:22:00,-2.402E-01,4C000000*,-703.0,972.682,89,25.4,44.7,0.412,748.7,2.1,1.050*
2018-07-09 00:23:00,-2.049E-01,4C000000*,-703.0,972.682,91,25.4,45.0,0.412,748.7,2.1,1.050*
2018-07-09 00:24:00,-2.107E-01,4C000000*,-703.0,973.086,91,25.4,44.9,0.412,748.7,2.1,1.050*
2018-07-09 00:25:00,-2.626E-01,4C000000*,-703.0,973.491,88,25.5,44.9,0.412,748.7,2.1,1.050*
2018-07-09 00:26:00,-2.511E-01,4C000000*,-703.0,974.299,90,25.4,45.1,0.412,748.7,2.1,1.050*
2018-07-09 00:27:00,-2.245E-01,4C000000*,-702.6,973.086,90,25.4,44.8,0.412,748.7,2.1,1.050*
2018-07-09 00:28:00,-2.536E-01,4C000000*,-703.0,970.661,89,25.4,44.9,0.412,748.7,2.1,1.050*
2018-07-09 00:29:00,-3.254E-01,4C000000*,-702.6,973.086,90,25.5,45.1,0.412,748.7,2.1,1.050*
2018-07-09 00:30:00,-2.476E-01,4C000000*,-703.0,972.682,89,25.4,44.8,0.412,748.7,2.1,1.050*
2018-07-09 00:31:00,-2.457E-01,4C000000*,-703.0,973.895,91,25.3,44.9,0.412,748.7,2.1,1.050*
2018-07-09 00:32:00,-2.868E-01,4C000000*,-703.0,973.491,91,25.5,45.1,0.412,748.4,2.1,1.050*
2018-07-09 00:33:00,-2.044E-01,4C000000*,-702.6,972.682,89,25.5,44.8,0.412,748.7,2.1,1.050*
2018-07-09 00:34:00,-2.961E-01,4C000000*,-702.6,973.491,90,25.5,45.0,0.412,748.7,2.1,1.050*
2018-07-09 00:35:00,-3.321E-01,4C000000*,-702.6,972.682,90,25.5,44.9,0.412,748.7,2.1,1.050*
2018-07-09 00:36:00,-2.057E-01,4C000000*,-703.0,973.491,90,25.5,44.8,0.412,748.7,2.1,1.050*
2018-07-09 00:37:00,-1.815E-01,4C000000*,-702.6,973.491,90,25.5,45.0,0.412,748.7,2.1,1.050*
2018-07-09 00:38:00,-2.780E-01,4C000000*,-702.6,973.491,89,25.4,44.8,0.412,748.7,2.1,1.050*
2018-07-09 00:39:00,-2.910E-01,4C000000*,-703.0,972.682,88,25.5,44.9,0.412,748.7,2.1,1.050*
2018-07-09 00:40:00,-2.224E-01,4C000000*,-702.6,973.491,90,25.5,45.2,0.412,748.4,2.1,1.050*
2018-07-09 00:41:00,-1.446E-01,4C000000*,-703.0,972.278,89,25.5,44.7,0.412,748.7,2.1,1.050*
2018-07-09 00:42:00,-2.373E-01,4C000000*,-703.0,972.682,89,25.4,44.9,0.412,748.7,2.1,1.050*
2018-07-09 00:43:00,-2.574E-01,4C000000*,-703.0,972.278,91,25.4,45.1,0.412,748.4,2.1,1.050*
2018-07-09 00:44:00,-2.534E-01,4C000000*,-702.6,972.682,91,25.5,44.8,0.412,748.7,2.1,1.050*
2018-07-09 00:45:00,-1.963E-01,4C000000*,-703.0,972.682,90,25.4,45.2,0.412,748.7,2.1,1.050*
2018-07-09 00:46:00,-1.730E-01,4C000000*,-702.6,973.086,90,25.5,44.9,0.412,748.4,2.1,1.050*
2018-07-09 00:47:00,-1.948E-01,4C000000*,-702.6,972.278,89,25.5,45.0,0.412,748.7,2.1,1.050*
2018-07-09 00:48:00,-1.809E-01,4C000000*,-703.0,972.278,89,25.6,45.0,0.412,748.4,2.1,1.050*
2018-07-09 00:49:00,-2.510E-01,4C000000*,-703.0,973.491,90,25.4,44.7,0.412,748.7,2.1,1.050*
2018-07-09 00:50:00,-1.519E-01,4C000000*,-702.6,972.278,90,25.5,45.0,0.412,748.7,2.1,1.050*
2018-07-09 00:51:00,-1.493E-01,4C000000*,-703.0,973.086,88,25.5,45.1,0.412,748.4,2.1,1.050*
2018-07-09 00:52:00,-2.792E-01,4C000000*,-702.6,972.682,89,25.5,44.8,0.412,748.7,2.1,1.050*
2018-07-09 00:53:00,-2.652E-01,4C000000*,-702.6,972.682,89,25.5,44.9,0.412,748.7,2.1,1.050*
2018-07-09 00:54:00,-3.015E-01,4C000000*,-702.6,972.682,89,25.5,45.1,0.412,748.7,2.1,1.050*
2018-07-09 00:55:00,-1.736E-01,4C000000*,-703.0,973.086,90,25.5,44.8,0.412,748.7,2.1,1.050*
2018-07-09 00:56:00,-2.563E-01,4C000000*,-703.0,973.086,91,25.6,45.0,0.412,748.7,2.1,1.050*
2018-07-09 00:57:00,-2.037E-01,4C000000*,-703.0,972.682,90,25.5,44.9,0.412,748.4,2.1,1.050*
2018-07-09 00:58:00,-2.184E-01,4C000000*,-702.6,973.491,90,25.5,44.8,0.412,748.7,2.1,1.050*
2018-07-09 00:59:00,-2.635E-01,4C000000*,-702.6,972.682,90,25.5,45.0,0.412,748.7,2.1,1.050*
2018-07-09 01:00:00,-1.310E-01,4C000000*,-703.0,972.278,90,25.5,45.0,0.412,748.4,2.1,1.050*
2018-07-09 01:01:00,-1.828E-01,4C000000*,-703.0,973.086,91,25.5,44.9,0.412,748.4,2.1,1.050*
2018-07-09 01:02:00,-2.303E-01,4C000000*,-703.0,973.086,91,25.6,45.1,0.412,748.7,2.1,1.050*
2018-07-09 01:03:00,-1.951E-01,4C000000*,-703.4,971.873,90,25.5,44.9,0.412,748.7,2.1,1.050*
2018-07-09 01:04:00,-2.097E-01,4C000000*,-702.6,972.278,90,25.5,45.0,0.412,748.7,2.1,1.050*
2018-07-09 01:05:00,-2.042E-01,4C000000*,-702.6,973.895,90,25.5,44.8,0.412,748.7,2.1,1.050*
2018-07-09 01:06:00,-2.248E-01,4C000000*,-702.6,973.086,90,25.6,44.8,0.412,748.7,2.1,1.050*
2018-07-09 01:07:00,-2.994E-01,4C000000*,-703.0,973.086,90,25.5,45.2,0.412,748.4,2.1,1.050*
2018-07-09 01:08:00,-2.159E-01,4C000000*,-703.4,973.086,89,25.5,44.8,0.412,748.7,2.1,1.050*
2018-07-09 01:09:00,-2.259E-01,4C000000*,-703.0,973.491,90,25.6,44.9,0.412,748.7,2.1,1.050*
2018-07-09 01:10:00,-2.152E-01,4C000000*,-703.0,973.895,90,25.5,45.0,0.412,748.7,2.1,1.050*
2018-07-09 01:11:00,-2.936E-01,4C000000*,-703.0,973.895,90,25.5,44.7,0.412,748.4,2.1,1.050*
2018-07-09 01:12:00,-1.872E-01,4C000000*,-703.0,972.682,90,25.5,45.0,0.412,748.7,2.1,1.050*
2018-07-09 01:13:00,-2.250E-01,4C000000*,-702.6,972.278,91,25.6,45.1,0.412,748.4,2.1,1.050*
2018-07-09 01:14:00,-2.285E-01,4C000000*,-702.6,973.491,90,25.5,44.9,0.412,748.7,2.1,1.050*
2018-07-09 01:15:00,-1.960E-01,4C000000*,-703.0,972.682,90,25.6,45.0,0.412,748.7,2.1,1.050*
2018-07-09 01:16:00,-2.605E-01,4C000000*,-703.0,972.682,90,25.6,44.8,0.412,748.7,2.1,1.050*
2018-07-09 01:17:00,-2.069E-01,4C000000*,-703.0,973.086,89,25.6,44.8,0.412,748.7,2.1,1.050*
2018-07-09 01:18:00,-2.355E-01,4C000000*,-703.4,972.278,90,25.5,45.1,0.412,748.7,2.1,1.050*
2018-07-09 01:19:00,-2.180E-01,4C000000*,-702.3,972.278,90,25.6,44.9,0.412,748.7,2.1,1.050*
2018-07-09 01:20:00,-3.588E-01,4C000000*,-703.4,973.086,89,25.6,44.8,0.412,748.7,2.1,1.050*
2018-07-09 01:21:00,-2.429E-01,4C000000*,-703.0,972.682,90,25.6,45.0,0.412,748.4,2.1,1.050*
2018-07-09 01:22:00,-1.997E-01,4C000000*,-702.6,973.086,90,25.6,44.9,0.412,748.7,2.1,1.050*
2018-07-09 01:23:00,-2.558E-01,4C000000*,-702.6,973.086,89,25.6,44.9,0.412,748.7,2.1,1.050*
2018-07-09 01:24:00,-2.107E-01,4C000000*,-703.0,973.491,90,25.6,45.2,0.412,748.4,2.1,1.050*
2018-07-09 01:25:00,-2.779E-01,4C000000*,-703.0,973.491,89,25.6,44.7,0.412,748.7,2.1,1.050*
2018-07-09 01:26:00,-2.196E-01,4C000000*,-703.0,973.086,90,25.6,44.9,0.412,748.7,2.1,1.050*
2018-07-09 01:27:00,-1.978E-01,4C000000*,-702.3,971.873,90,25.6,45.0,0.412,748.4,2.1,1.050*
2018-07-09 01:28:00,-2.347E-01,4C000000*,-703.0,973.491,90,25.6,44.8,0.412,748.7,2.1,1.050*
2018-07-09 01:29:00,-1.764E-01,4C000000*,-702.6,972.682,90,25.6,45.0,0.412,748.7,2.1,1.050*
2018-07-09 01:30:00,-2.154E-01,4C000000*,-702.6,973.086,90,25.6,45.0,0.412,748.7,2.1,1.050*
2018-07-09 01:31:00,-2.613E-01,4C000000*,-703.0,973.895,90,25.6,44.8,0.412,748.7,2.1,1.050*
2018-07-09 01:32:00,-2.699E-01,4C000000*,-703.0,973.086,89,25.7,45.1,0.412,748.7,2.1,1.050*
2018-07-09 01:33:00,-2.913E-01,4C000000*,-703.0,972.682,91,25.7,44.9,0.412,748.7,2.1,1.050*
2018-07-09 01:34:00,-1.927E-01,4C000000*,-702.6,972.682,90,25.7,44.9,0.412,748.7,2.1,1.050*
2018-07-09 01:35:00,-2.191E-01,4C000000*,-703.0,973.491,88,25.6,45.2,0.412,748.4,2.1,1.050*
2018-07-09 01:36:00,-2.112E-01,4C000000*,-703.0,971.469,90,25.6,44.8,0.412,748.7,2.1,1.050*
2018-07-09 01:37:00,-2.075E-01,4C000000*,-702.6,971.873,90,25.6,44.9,0.412,748.7,2.1,1.050*
2018-07-09 01:38:00,-2.898E-01,4C000000*,-703.0,972.682,90,25.6,45.1,0.412,748.4,2.1,1.050*
2018-07-09 01:39:00,-2.211E-01,4C000000*,-703.0,971.873,91,25.6,44.8,0.412,748.4,2.1,1.050*
2018-07-09 01:40:00,-1.982E-01,4C000000*,-702.6,972.682,91,25.6,45.0,0.412,748.4,2.1,1.050*
2018-07-09 01:41:00,-2.697E-01,4C000000*,-703.4,971.469,90,25.7,45.0,0.412,748.7,2.1,1.050*
2018-07-09 01:42:00,-2.633E-01,4C000000*,-702.6,973.086,90,25.5,44.8,0.412,748.7,2.1,1.050*
2018-07-09 01:43:00,-1.800E-01,4C000000*,-702.6,972.278,90,25.6,45.1,0.412,748.7,2.1,1.050*
2018-07-09 01:44:00,-2.194E-01,4C000000*,-702.6,973.491,90,25.6,45.0,0.412,748.7,2.1,1.050*
2018-07-09 01:45:00,-1.690E-01,4C000000*,-703.0,972.278,90,25.6,44.7,0.412,748.7,2.1,1.050*
2018-07-09 01:46:00,-2.050E-01,4C000000*,-702.6,973.086,89,25.7,44.9,0.412,748.7,2.1,1.050*
2018-07-09 01:47:00,-3.220E-01,4C000000*,-702.6,972.682,91,25.7,45.1,0.412,748.4,2.1,1.050*
2018-07-09 01:48:00,-2.644E-01,4C000000*,-702.6,972.682,90,25.6,44.7,0.412,748.7,2.1,1.050*
2018-07-09 01:49:00,-2.685E-01,4C000000*,-702.6,973.086,91,25.7,44.9,0.412,748.7,2.1,1.050*
2018-07-09 01:50:00,-2.595E-01,4C000000*,-703.0,971.469,91,25.7,45.1,0.412,748.7,2.1,1.050*
2018-07-09 01:51:00,-2.326E-01,4C000000*,-703.0,973.086,90,25.7,44.7,0.413,748.7,2.1,1.050*
2018-07-09 01:52:00,-2.119E-01,4C000000*,-703.0,972.682,89,25.7,44.8,0.412,748.7,2.1,1.050*
2018-07-09 01:53:00,-2.631E-01,4C000000*,-703.0,972.682,89,25.7,45.1,0.412,748.7,2.1,1.050*
2018-07-09 01:54:00,-1.227E-01,4C000000*,-702.6,972.682,90,25.8,44.8,0.412,748.7,2.1,1.050*
2018-07-09 01:55:00,-2.821E-01,4C000000*,-703.0,973.491,89,25.7,44.8,0.412,748.7,2.1,1.050*
2018-07-09 01:56:00,-3.023E-01,4C000000*,-703.0,972.278,90,25.6,45.0,0.412,748.7,2.1,1.050*
2018-07-09 01:57:00,-1.991E-01,4C000000*,-703.0,971.065,89,25.7,45.0,0.412,748.4,2.1,1.050*
2018-07-09 01:58:00,-2.645E-01,4C000000*,-702.6,971.469,89,25.7,44.8,0.412,748.7,2.1,1.050*
2018-07-09 01:59:00,-2.884E-01,4C000000*,-703.0,972.278,90,25.7,45.0,0.412,748.7,2.1,1.050*
2018-07-09 02:00:00,-1.600E-01,4C000000*,-703.0,972.278,90,25.7,45.0,0.412,748.7,2.1,1.050*
2018-07-09 02:01:00,-1.682E-01,4C000000*,-703.0,973.895,90,25.7,44.9,0.412,748.7,2.1,1.050*
2018-07-09 02:02:00,-4.981E-02,4C000000*,-703.0,972.682,90,25.7,45.1,0.412,748.4,2.1,1.050*
2018-07-09 02:03:00,-1.330E-01,4C000000*,-703.0,971.065,88,25.7,44.8,0.412,748.7,2.1,1.050*
2018-07-09 02:04:00,-6.242E-02,4C000000*,-703.0,972.682,89,25.7,45.1,0.412,748.4,2.1,1.050*
2018-07-09 02:05:00,-9.570E-02,4C000000*,-703.0,972.278,90,25.7,44.8,0.412,748.7,2.1,1.050*
2018-07-09 02:06:00,-1.030E-01,4C000000*,-703.0,972.278,88,25.7,45.0,0.412,748.7,2.1,1.050*
2018-07-09 02:07:00,-1.488E-01,4C000000*,-703.0,973.086,90,25.7,45.0,0.412,748.4,2.1,1.050*
2018-07-09 02:08:00,-1.146E-01,4C000000*,-702.6,972.278,90,25.7,44.8,0.412,748.7,2.1,1.050*
2018-07-09 02:09:00,-1.156E-01,4C000000*,-703.0,973.895,90,25.7,45.0,0.412,748.7,2.1,1.050*
2018-07-09 02:10:00,-1.412E-01,4C000000*,-702.6,973.086,90,25.7,45.0,0.412,748.7,2.1,1.050*
2018-07-09 02:11:00,-1.765E-01,4C000000*,-702.6,971.873,90,25.7,44.8,0.412,748.7,2.1,1.050*
2018-07-09 02:12:00,-1.668E-01,4C000000*,-702.6,972.682,90,25.7,45.1,0.412,748.7,2.1,1.050*
2018-07-09 02:13:00,-1.801E-01,4C000000*,-703.0,971.873,90,25.7,44.8,0.412,748.7,2.1,1.050*
2018-07-09 02:14:00,-2.171E-01,4C000000*,-703.0,972.278,89,25.7,44.9,0.412,748.7,2.1,1.050*
2018-07-09 02:15:00,-2.492E-01,4C000000*,-702.6,972.278,91,25.8,45.2,0.412,748.4,2.1,1.050*
2018-07-09 02:16:00,-1.723E-01,4C000000*,-702.6,973.086,90,25.7,44.8,0.412,748.7,2.1,1.050*
2018-07-09 02:17:00,-2.355E-01,4C000000*,-702.6,972.278,90,25.8,45.0,0.412,748.7,2.1,1.050*
2018-07-09 02:18:00,-1.838E-01,4C000000*,-703.0,972.682,89,25.8,45.0,0.412,748.4,2.1,1.050*
2018-07-09 02:19:00,-1.861E-01,4C000000*,-703.0,971.873,89,25.8,44.8,0.412,748.7,2.1,1.050*
2018-07-09 02:20:00,-1.452E-01,4C000000*,-702.6,973.491,90,25.8,45.0,0.412,748.7,2.1,1.050*
2018-07-09 02:21:00,-2.532E-01,4C000000*,-703.0,972.278,91,25.8,45.0,0.412,748.4,2.1,1.050*
2018-07-09 02:22:00,-1.349E-01,4C000000*,-703.0,972.682,90,25.8,44.8,0.412,748.4,2.1,1.050*
2018-07-09 02:23:00,-1.538E-01,4C000000*,-702.6,972.278,90,25.8,45.0,0.412,748.4,2.1,1.050*
2018-07-09 02:24:00,-2.482E-01,4C000000*,-703.0,973.086,89,25.8,44.9,0.412,748.7,2.1,1.050*
2018-07-09 02:25:00,-1.672E-01,4C000000*,-703.0,971.873,91,25.8,44.9,0.412,748.4,2.1,1.050*
2018-07-09 02:26:00,-1.861E-01,4C000000*,-703.0,973.491,90,25.8,45.2,0.412,748.4,2.1,1.050*
2018-07-09 02:27:00,-1.663E-01,4C000000*,-703.0,972.278,90,25.7,44.7,0.412,748.4,2.1,1.050*
2018-07-09 02:28:00,-1.906E-01,4C000000*,-703.0,972.278,91,25.8,44.9,0.412,748.4,2.1,1.050*
2018-07-09 02:29:00,-1.805E-01,4C000000*,-703.0,972.278,89,25.9,45.0,0.412,748.4,2.1,1.050*
2018-07-09 02:30:00,-1.454E-01,4C000000*,-702.6,971.469,90,25.9,44.8,0.412,748.7,2.1,1.050*
2018-07-09 02:31:00,-2.920E-01,4C000000*,-703.0,971.469,90,25.8,45.0,0.412,748.7,2.1,1.050*
2018-07-09 02:32:00,-2.098E-01,4C000000*,-702.6,972.278,90,25.8,45.0,0.412,748.7,2.1,1.050*
2018-07-09 02:33:00,-2.436E-01,4C000000*,-702.6,973.491,90,25.7,44.8,0.412,748.7,2.1,1.050*
2018-07-09 02:34:00,-1.900E-01,4C000000*,-703.0,973.491,90,25.8,45.1,0.413,748.7,2.1,1.050*
2018-07-09 02:35:00,-2.176E-01,4C000000*,-703.0,972.682,90,25.9,44.9,0.412,748.7,2.1,1.050*
2018-07-09 02:36:00,-1.830E-01,4C000000*,-702.6,972.278,91,25.9,44.9,0.412,748.7,2.1,1.050*
2018-07-09 02:37:00,-1.282E-01,4C000000*,-702.6,972.682,90,25.9,45.2,0.412,748.4,2.1,1.050*
2018-07-09 02:38:00,-2.522E-01,4C000000*,-702.6,972.682,90,25.8,44.8,0.413,748.7,2.1,1.050*
2018-07-09 02:39:00,-2.522E-01,4C000000*,-703.0,973.491,90,25.8,45.0,0.412,748.7,2.1,1.050*
2018-07-09 02:40:00,-2.342E-01,4C000000*,-703.0,972.682,90,25.8,45.0,0.412,748.7,2.1,1.050*
2018-07-09 02:41:00,-2.887E-01,4C000000*,-703.0,973.086,90,25.8,44.8,0.412,748.7,2.1,1.050*
2018-07-09 02:42:00,-1.875E-01,4C000000*,-702.6,972.682,89,25.8,45.0,0.412,748.7,2.1,1.050*
2018-07-09 02:43:00,-2.142E-01,4C000000*,-703.0,971.873,89,25.9,45.0,0.412,748.7,2.1,1.050*
2018-07-09 02:44:00,-2.048E-01,4C000000*,-703.0,972.682,88,25.8,44.8,0.412,748.7,2.1,1.050*
2018-07-09 02:45:00,-2.485E-01,4C000000*,-703.0,972.682,90,25.8,45.0,0.412,748.7,2.1,1.050*
2018-07-09 02:46:00,-3.478E-01,4C000000*,-703.0,974.299,88,25.9,44.9,0.412,748.7,2.1,1.050*
2018-07-09 02:47:00,-2.651E-01,4C000000*,-703.0,974.299,88,25.8,44.9,0.412,748.7,2.1,1.050*
2018-07-09 02:48:00,-2.154E-01,4C000000*,-703.0,972.278,90,25.8,45.1,0.412,748.4,2.1,1.050*
2018-07-09 02:49:00,-2.348E-01,4C000000*,-703.0,972.278,90,25.9,44.9,0.412,748.7,2.1,1.050*
2018-07-09 02:50:00,-1.758E-01,4C000000*,-703.0,973.086,90,25.9,45.1,0.412,748.7,2.1,1.050*
2018-07-09 02:51:00,-2.269E-01,4C000000*,-702.6,971.873,89,25.9,44.9,0.412,748.7,2.1,1.050*
2018-07-09 02:52:00,-2.055E-01,4C000000*,-703.0,971.873,90,25.9,45.0,0.413,748.7,2.1,1.050*
2018-07-09 02:53:00,-1.824E-01,4C000000*,-703.0,972.278,88,25.9,45.0,0.412,748.4,2.1,1.050*
2018-07-09 02:54:00,-1.119E-01,4C000000*,-703.0,971.873,89,25.8,44.7,0.412,748.4,2.1,1.050*
2018-07-09 02:55:00,-1.913E-01,4C000000*,-703.4,971.469,90,25.8,45.0,0.412,748.4,2.1,1.050*
2018-07-09 02:56:00,-2.424E-01,4C000000*,-703.0,972.278,90,25.9,45.0,0.412,748.4,2.1,1.050*
2018-07-09 02:57:00,-1.838E-01,4C000000*,-703.4,972.278,89,25.8,44.8,0.412,748.7,2.1,1.050*
2018-07-09 02:58:00,-1.890E-01,4C000000*,-703.0,973.086,89,25.8,45.0,0.412,748.7,2.1,1.050*
2018-07-09 02:59:00,-1.499E-01,4C000000*,-702.6,972.278,90,25.9,45.1,0.412,748.4,2.1,1.050*
2018-07-09 03:00:00,-2.658E-01,4C000000*,-703.0,972.278,90,25.9,44.8,0.412,748.4,2.1,1.050*
2018-07-09 03:01:00,-1.417E-01,4C000000*,-703.0,972.278,90,25.8,45.1,0.412,748.4,2.1,1.050*
2018-07-09 03:02:00,-2.334E-01,4C000000*,-703.0,971.873,89,25.9,44.9,0.412,748.4,2.1,1.050*
2018-07-09 03:03:00,-1.667E-01,4C000000*,-702.6,971.873,90,25.8,44.8,0.412,748.4,2.1,1.050*
2018-07-09 03:04:00,-1.605E-01,4C000000*,-703.0,970.661,90,25.9,45.1,0.412,748.4,2.1,1.050*
2018-07-09 03:05:00,-2.567E-01,4C000000*,-703.0,972.278,90,25.9,44.8,0.412,748.4,2.1,1.050*
2018-07-09 03:06:00,-1.655E-01,4C000000*,-702.6,972.278,90,25.9,44.9,0.412,748.7,2.1,1.050*
2018-07-09 03:07:00,-1.959E-01,4C000000*,-703.0,971.873,90,25.9,45.0,0.412,748.4,2.1,1.050*
2018-07-09 03:08:00,-1.971E-01,4C000000*,-702.6,972.278,89,25.9,44.7,0.412,748.4,2.1,1.050*
2018-07-09 03:09:00,-2.355E-01,4C000000*,-702.6,972.278,90,25.9,44.9,0.412,748.7,2.1,1.050*
2018-07-09 03:10:00,-2.906E-01,4C000000*,-702.6,971.469,91,26.0,45.1,0.412,748.7,2.1,1.050*
2018-07-09 03:11:00,-2.004E-01,4C000000*,-703.0,973.086,89,25.9,44.8,0.412,748.7,2.1,1.050*
2018-07-09 03:12:00,-2.577E-01,4C000000*,-702.6,972.278,90,25.9,45.1,0.413,748.4,2.1,1.050*
2018-07-09 03:13:00,-3.119E-01,4C000000*,-703.0,971.469,90,25.9,44.8,0.412,748.4,2.1,1.050*
2018-07-09 03:14:00,-2.744E-01,4C000000*,-703.0,972.682,90,25.9,44.8,0.412,748.4,2.1,1.050*
2018-07-09 03:15:00,-1.616E-01,4C000000*,-702.6,973.086,89,25.9,45.1,0.412,748.4,2.1,1.050*
2018-07-09 03:16:00,-2.588E-01,4C000000*,-703.0,972.278,89,25.9,44.8,0.412,748.4,2.1,1.050*
2018-07-09 03:17:00,-3.279E-01,4C000000*,-703.0,971.873,90,25.9,45.0,0.412,748.4,2.1,1.050*
2018-07-09 03:18:00,-2.124E-01,4C000000*,-702.6,971.873,91,25.9,44.9,0.412,748.4,2.1,1.050*
2018-07-09 03:19:00,-2.319E-01,4C000000*,-703.0,972.682,90,25.9,44.8,0.412,748.4,2.1,1.050*
2018-07-09 03:20:00,-2.987E-01,4C000000*,-703.0,972.278,90,26.0,45.0,0.412,748.4,2.1,1.050*
2018-07-09 03:21:00,-3.009E-01,4C000000*,-702.3,971.873,90,26.0,44.8,0.412,748.7,2.1,1.050*
2018-07-09 03:22:00,-2.565E-01,4C000000*,-703.0,971.873,90,26.0,44.9,0.412,748.4,2.1,1.050*
2018-07-09 03:23:00,-2.522E-01,4C000000*,-703.0,972.682,90,26.0,45.1,0.413,748.7,2.1,1.050*
2018-07-09 03:24:00,-1.923E-01,4C000000*,-703.0,971.469,91,26.0,44.8,0.413,748.4,2.1,1.050*
2018-07-09 03:25:00,-2.723E-01,4C000000*,-703.0,971.873,89,26.0,45.0,0.412,748.7,2.1,1.050*
2018-07-09 03:26:00,-2.265E-01,4C000000*,-702.6,972.278,89,26.0,45.0,0.412,748.4,2.1,1.050*
2018-07-09 03:27:00,-2.290E-01,4C000000*,-702.6,971.469,89,26.0,44.8,0.412,748.4,2.1,1.050*
2018-07-09 03:28:00,-1.797E-01,4C000000*,-703.0,971.065,90,26.0,45.0,0.412,748.4,2.1,1.050*
2018-07-09 03:29:00,-2.595E-01,4C000000*,-703.0,971.469,91,26.0,45.0,0.412,748.4,2.1,1.050*
2018-07-09 03:30:00,-2.993E-01,4C000000*,-703.0,971.873,91,26.0,44.8,0.412,748.7,2.1,1.050*
2018-07-09 03:31:00,-1.418E-01,4C000000*,-703.0,972.278,89,26.0,45.0,0.412,748.4,2.1,1.050*
2018-07-09 03:32:00,-2.554E-01,4C000000*,-703.0,972.278,90,26.0,44.8,0.412,748.4,2.1,1.050*
2018-07-09 03:33:00,-2.421E-01,4C000000*,-703.0,971.469,90,26.0,44.9,0.412,748.4,2.1,1.050*
2018-07-09 03:34:00,-1.876E-01,4C000000*,-703.0,971.065,90,26.0,45.1,0.412,748.4,2.1,1.050*
2018-07-09 03:35:00,-2.615E-01,4C000000*,-703.0,973.086,89,26.0,44.7,0.412,748.4,2.1,1.050*
2018-07-09 03:36:00,-2.674E-01,4C000000*,-702.6,971.873,90,26.0,44.9,0.412,748.4,2.1,1.050*
2018-07-09 03:37:00,-1.770E-01,4C000000*,-702.6,972.682,90,26.0,45.0,0.412,748.4,2.1,1.050*
2018-07-09 03:38:00,-2.581E-01,4C000000*,-703.0,972.682,90,26.0,44.8,0.412,748.4,2.1,1.050*
2018-07-09 03:39:00,-2.777E-01,4C000000*,-703.0,972.278,89,26.0,45.0,0.412,748.4,2.1,1.050*
2018-07-09 03:40:00,-2.644E-01,4C000000*,-703.0,973.086,89,26.0,45.0,0.412,748.1,2.1,1.050*
2018-07-09 03:41:00,-2.691E-01,4C000000*,-702.6,972.682,88,26.0,44.8,0.412,748.4,2.1,1.050*
2018-07-09 03:42:00,-3.038E-01,4C000000*,-703.0,973.086,88,26.0,45.0,0.412,748.4,2.1,1.050*
2018-07-09 03:43:00,-2.445E-01,4C000000*,-703.0,972.682,89,26.0,44.8,0.412,748.4,2.1,1.050*
2018-07-09 03:44:00,-3.099E-01,4C000000*,-702.6,973.086,88,26.0,44.9,0.412,748.1,2.1,1.050*
2018-07-09 03:45:00,-3.261E-01,4C000000*,-702.6,972.682,90,26.0,45.1,0.412,748.4,2.1,1.050*
2018-07-09 03:46:00,-2.301E-01,4C000000*,-703.0,973.895,90,26.0,44.8,0.412,748.4,2.1,1.050*
2018-07-09 03:47:00,-1.382E-01,4C000000*,-702.6,971.873,89,26.1,44.9,0.412,748.4,2.1,1.050*
2018-07-09 03:48:00,-2.274E-01,4C000000*,-703.0,971.873,90,26.0,44.9,0.412,748.1,2.1,1.050*
2018-07-09 03:49:00,-1.912E-01,4C000000*,-702.6,971.469,89,26.0,44.8,0.412,748.4,2.1,1.050*
2018-07-09 03:50:00,-2.554E-01,4C000000*,-702.6,972.682,91,26.1,44.9,0.412,748.4,2.1,1.050*
2018-07-09 03:51:00,-2.518E-01,4C000000*,-702.6,971.873,90,26.1,45.1,0.413,748.4,2.1,1.050*
2018-07-09 03:52:00,-1.827E-01,4C000000*,-702.6,971.873,89,26.0,44.8,0.412,748.4,2.1,1.050*
2018-07-09 03:53:00,-2.390E-01,4C000000*,-703.0,973.086,89,26.1,45.1,0.412,748.4,2.1,1.050*
2018-07-09 03:54:00,-2.496E-01,4C000000*,-702.6,972.278,89,26.0,44.8,0.412,748.4,2.1,1.050*
2018-07-09 03:55:00,-2.127E-01,4C000000*,-703.0,971.873,89,26.1,44.8,0.412,748.4,2.1,1.050*
2018-07-09 03:56:00,-2.832E-01,4C000000*,-702.6,971.873,91,26.1,45.2,0.412,748.4,2.1,1.050*
2018-07-09 03:57:00,-2.279E-01,4C000000*,-703.0,971.469,90,26.1,44.8,0.412,748.4,2.1,1.050*
2018-07-09 03:58:00,-1.856E-01,4C000000*,-703.0,972.682,90,26.0,45.0,0.412,748.4,2.1,1.050*
2018-07-09 03:59:00,-2.064E-01,4C000000*,-702.6,972.682,88,26.1,45.0,0.412,748.4,2.1,1.050*
2018-07-09 04:00:00,-2.250E-01,4C000000*,-703.0,973.086,89,26.0,44.8,0.412,748.4,2.1,1.050*
2018-07-09 04:01:00,-1.807E-01,4C000000*,-703.0,972.278,90,26.0,45.0,0.412,748.4,2.1,1.050*
2018-07-09 04:02:00,-2.497E-01,4C000000*,-702.6,972.682,90,26.1,45.0,0.412,748.4,2.1,1.050*
2018-07-09 04:03:00,-2.778E-01,4C000000*,-702.6,971.873,91,26.1,44.8,0.412,748.4,2.1,1.050*
2018-07-09 04:04:00,-1.757E-01,4C000000*,-703.0,972.682,91,26.1,45.0,0.412,748.7,2.1,1.050*
2018-07-09 04:05:00,-3.127E-01,4C000000*,-702.6,971.873,90,26.0,44.8,0.412,748.4,2.1,1.050*
2018-07-09 04:06:00,-2.724E-01,4C000000*,-702.6,972.278,91,26.1,44.9,0.412,748.4,2.1,1.050*
2018-07-09 04:07:00,-2.636E-01,4C000000*,-703.0,971.469,88,26.1,45.2,0.412,748.4,2.1,1.050*
2018-07-09 04:08:00,-2.941E-01,4C000000*,-702.6,971.873,90,26.1,44.8,0.412,748.4,2.1,1.050*
2018-07-09 04:09:00,-2.302E-01,4C000000*,-703.0,971.873,89,26.1,44.9,0.412,748.4,2.1,1.050*
2018-07-09 04:10:00,-1.618E-01,4C000000*,-703.0,971.065,90,26.1,45.0,0.412,748.4,2.1,1.050*
2018-07-09 04:11:00,-2.138E-01,4C000000*,-702.6,971.065,90,26.1,44.8,0.412,748.4,2.1,1.050*
2018-07-09 04:12:00,-2.113E-01,4C000000*,-702.6,971.469,89,26.1,45.0,0.412,748.4,2.1,1.050*
2018-07-09 04:13:00,-1.748E-01,4C000000*,-702.6,971.873,90,26.1,45.0,0.412,748.4,2.1,1.050*
2018-07-09 04:14:00,-2.722E-01,4C000000*,-702.6,971.873,88,26.0,44.8,0.412,748.4,2.1,1.050*